DG5MLB Weather Reports


time (UTC)temp
F
wind
direction
speed
knots
gust
knots
rain 1hr
in
rain 24hr
in
rain mn
in
humidity
%
barometer
mb
20200708134551 78 351 4.3 11.3 0.00 0.00 0.00 39 1014.5
20200708133011 77 9 3.5 13.0 0.00 0.00 0.00 39 1014.4
20200708131638 76 279 4.3 13.9 0.00 0.00 0.00 39 1014.3
20200708130018 76 246 6.1 13.9 0.00 0.00 0.00 38 1014.4
20200708124600 77 267 4.3 10.4 0.00 0.00 0.00 37 1014.5
20200708123012 76 286 4.3 11.3 0.00 0.00 0.00 38 1014.6
20200708121540 76 248 6.1 13.9 0.00 0.00 0.00 35 1014.6
20200708120006 75 267 4.3 14.8 0.00 0.00 0.00 37 1014.7
20200708114553 75 274 5.2 11.3 0.00 0.00 0.00 38 1014.8
20200708113019 74 290 6.1 14.8 0.00 0.00 0.00 38 1015.0
20200708111636 74 272 4.3 14.8 0.00 0.00 0.00 39 1015.0
20200708110016 75 248 3.5 10.4 0.00 0.00 0.00 39 1015.1
20200708104637 74 257 5.2 11.3 0.00 0.00 0.00 42 1015.2
20200708103009 73 204 1.7 9.6 0.00 0.00 0.00 44 1015.3
20200708101634 72 340 3.5 12.2 0.00 0.00 0.00 45 1015.3
20200708100016 72 281 6.1 13.0 0.00 0.00 0.00 45 1015.3
20200708094635 72 208 4.3 12.2 0.00 0.00 0.00 46 1015.5
20200708093123 71 240 7.8 13.0 0.00 0.00 0.00 46 1015.5
20200708091519 71 271 5.2 8.7 0.00 0.00 0.00 47 1015.6
20200708090143 70 311 3.5 7.0 0.00 0.00 0.00 49 1015.7
20200708084551 69 211 4.3 8.7 0.00 0.00 0.00 49 1015.7
20200708083135 69 22 1.7 7.0 0.00 0.00 0.00 50 1015.8
20200708081542 68 323 2.6 7.8 0.00 0.00 0.00 51 1015.8
20200708080120 67 282 3.5 8.7 0.00 0.00 0.00 52 1015.9
20200708074518 67 291 3.5 8.7 0.00 0.00 0.00 54 1016.0
20200708073127 66 267 3.5 7.8 0.00 0.00 0.00 54 1016.1
20200708071508 65 292 2.6 7.0 0.00 0.00 0.00 57 1016.2
20200708070041 64 272 3.5 7.0 0.00 0.00 0.00 60 1016.3
20200708063148 62 242 3.5 7.0 0.00 0.00 0.00 65 1016.3
20200708061910 61 209 1.7 6.1 0.00 0.00 0.00 68 1016.2
20200708060059 60 254 3.5 9.6 0.00 0.00 0.00 69 1016.1
20200708054714 59 221 3.5 9.6 0.00 0.00 0.00 71 1016.1
20200708053026 58 201 2.6 6.1 0.00 0.00 0.00 73 1016.2
20200708051740 57 216 1.7 5.2 0.00 0.00 0.00 75 1016.2
20200708050018 56 259 1.7 6.1 0.00 0.00 0.00 79 1016.1
20200708044638 54 223 1.7 4.3 0.00 0.00 0.00 83 1016.0
20200708043008 53 214 0.9 3.5 0.00 0.00 0.00 86 1016.1
20200708041557 52 204 0.0 2.6 0.00 0.00 0.00 87 1016.0
20200708040254 51 227 0.9 3.5 0.00 0.00 0.00 87 1016.0
20200708034555 51 219 0.9 3.5 0.00 0.00 0.00 87 1015.9
20200708033210 50 221 0.9 1.7 0.00 0.00 0.00 87 1015.8
20200708031529 50 205 0.0 3.5 0.00 0.00 0.00 87 1015.6
20200708030051 50 184 0.0 3.5 0.00 0.00 0.00 86 1015.6
20200708023215 49 283 0.0 1.7 0.00 0.00 0.00 85 1015.7
20200708021557 49 311 0.0 1.7 0.00 0.00 0.00 84 1015.7
20200708020133 49 311 0.0 1.7 0.00 0.00 0.00 84 1015.8
20200708014608 49 311 0.0 0.9 0.00 0.00 0.00 84 1016.0
20200708013157 49 311 0.0 0.9 0.00 0.00 0.00 83 1016.0
20200708011530 49 311 0.0 0.0 0.00 0.00 0.00 83 1016.2
20200708010149 49 311 0.0 0.0 0.00 0.00 0.00 83 1016.2
20200708004557 50 311 0.0 0.0 0.00 0.00 0.00 82 1016.3
20200708003130 50 311 0.0 0.9 0.00 0.00 0.00 82 1016.4
20200708001559 50 311 0.0 0.9 0.00 0.00 0.00 82 1016.4
20200708000206 50 5 0.0 1.7 0.00 0.00 0.00 82 1016.7
20200707234547 50 5 0.0 0.0 0.00 0.00 0.00 82 1016.7
20200707233115 51 5 0.0 1.7 0.00 0.00 0.00 82 1016.7
20200707231535 51 5 0.0 0.0 0.00 0.00 0.00 82 1016.9
20200707230058 51 5 0.0 0.9 0.00 0.00 0.00 82 1016.8
20200707224525 51 5 0.0 0.9 0.00 0.00 0.00 82 1016.9
20200707223115 52 5 0.0 0.9 0.00 0.00 0.00 81 1016.9
20200707221602 52 5 0.0 0.0 0.00 0.00 0.00 81 1017.0
20200707220051 53 5 0.0 0.0 0.00 0.00 0.00 80 1017.0
20200707214519 53 5 0.0 0.0 0.00 0.00 0.00 79 1017.0
20200707213119 54 5 0.0 0.9 0.00 0.00 0.00 79 1017.0
20200707211549 54 5 0.0 1.7 0.00 0.00 0.00 77 1016.9
20200707210127 55 5 0.0 0.9 0.00 0.00 0.00 76 1016.9
20200707204527 56 5 0.0 1.7 0.00 0.00 0.00 74 1016.8
20200707203129 57 5 0.0 0.0 0.00 0.00 0.00 71 1016.9
20200707201614 58 5 0.0 1.7 0.00 0.00 0.00 69 1016.8
20200707200209 60 5 0.0 0.9 0.00 0.00 0.00 66 1016.7
20200707194618 61 5 0.0 0.9 0.00 0.00 0.00 63 1016.6
20200707193004 63 5 0.0 0.9 0.00 0.00 0.00 60 1016.5
20200707191622 65 5 0.0 0.9 0.00 0.00 0.00 54 1016.5
20200707190008 67 5 0.0 2.6 0.00 0.00 0.00 46 1016.3
20200707184556 68 344 0.0 2.6 0.00 0.00 0.00 46 1016.3
20200707183016 68 331 1.7 3.5 0.00 0.00 0.00 43 1016.2
20200707181620 69 329 1.7 3.5 0.00 0.00 0.00 42 1016.2
20200707180019 69 327 0.9 3.5 0.00 0.00 0.00 43 1016.3
20200707174552 69 336 3.5 6.1 0.00 0.00 0.00 42 1016.3
20200707173024 70 51 1.7 5.2 0.00 0.00 0.00 41 1016.3
20200707171627 70 350 2.6 6.1 0.00 0.00 0.00 40 1016.3
20200707170027 71 313 2.6 5.2 0.00 0.00 0.00 38 1016.4
20200707164637 71 322 2.6 6.1 0.00 0.00 0.00 39 1016.5
20200707163013 72 263 2.6 5.2 0.00 0.00 0.00 38 1016.6
20200707161607 72 281 1.7 6.1 0.00 0.00 0.00 37 1016.7
20200707160018 72 322 2.6 5.2 0.00 0.00 0.00 37 1016.8
20200707154536 72 315 2.6 4.3 0.00 0.00 0.00 37 1016.7
20200707153012 72 340 1.7 5.2 0.00 0.00 0.00 38 1016.8
20200707151610 72 231 0.9 6.1 0.00 0.00 0.00 38 1016.9
20200707150007 72 316 1.7 5.2 0.00 0.00 0.00 38 1016.9
20200707144555 70 245 0.9 6.1 0.00 0.00 0.00 38 1017.1
20200707143059 71 344 2.6 7.8 0.00 0.00 0.00 38 1017.3
20200707141553 70 283 1.7 5.2 0.00 0.00 0.00 38 1017.4
20200707140056 70 283 4.3 7.8 0.00 0.00 0.00 38 1017.5